Regional Weather Roundup
Issued by NWS Mt. Holly, NJ

Current Version | Previous Version | Text Only | Print | Product List | Glossary Off
Versions: 1 2 3 4 5 6 7 8 9 10 11 12 13 14 15 16 17 18 19 20 21 22 23 24 25 26 27

000
ASUS41 KPHI 030712
RWRPHI

REGIONAL WEATHER ROUNDUP
NATIONAL WEATHER SERVICE MOUNT HOLLY NJ
300 AM EDT TUE MAY 03 2016

NOTE:  "FAIR" INDICATES FEW OR NO CLOUDS BELOW 12,000 FEET WITH NO
SIGNIFICANT WEATHER AND/OR OBSTRUCTIONS TO VISIBILITY.

 * = STATION DOES NOT REPORT PRECIPITATION (E.G. RAIN, SNOW, ETC.)
        OR FOG.

NJZ015>026-030800-
SOUTHERN NEW JERSEY

CITY           SKY/WX    TMP DP  RH WIND       PRES   REMARKS
POMONA         CLOUDY    55  54  96 E9        29.82F
WILDWOOD*      CLOUDY   N/A N/A N/A SE6       29.82F
MILLVILLE      LGT RAIN  57  56  96 SE7       29.82S
WRIGHTSTOWN    LGT RAIN  55  54  94 E6        29.82S
MOUNT HOLLY    LGT RAIN  56  55  97 E3        29.84F
TRENTON        LGT RAIN  56  54  93 E10       29.83F FOG

$$
NJZ001>014-030800-
NORTHERN NEW JERSEY

CITY           SKY/WX    TMP DP  RH WIND       PRES   REMARKS
SUSSEX         LGT RAIN  52  49  89 CALM      29.89F
ANDOVER*         N/A     51  50  96 VRB5      29.87F
MORRISTOWN     RAIN      54  52  94 CALM      29.88R
NEWARK         LGT RAIN  54  54 100 SE7       29.89R FOG
TETERBORO      RAIN      54  52  94 NE5       29.87S FOG
CALDWELL       LGT RAIN  54  52  93 NE5       29.88F FOG
SOMERVILLE     LGT RAIN  55  53  93 N5        29.85F FOG
ALLAIRE*       CLOUDY    53  52  96 E6        29.85F FOG
TOMS RIVER*    CLOUDY    54  50  87 E3        29.84F

$$
PAZ043-044-047-054-055-060>062-066>071-030800-
EASTERN PENNSYLVANIA

CITY           SKY/WX    TMP DP  RH WIND       PRES   REMARKS
PHILADELPHIA   CLOUDY    58  54  86 E10       29.84F
NORTH PHILA    CLOUDY    58  55  90 E8        29.85F FOG
BLUE BELL*     CLOUDY    54  54 100 E5        29.83F
DOYLESTOWN     LGT RAIN  54  54 100 VRB5      29.84F
QUAKERTOWN*    CLOUDY    55  55 100 E3        29.85F
PERKASIE*      RAIN      54  54 100 SE3       29.86S
POTTSTOWN      LGT RAIN  55  55 100 VRB6      29.84F FOG
LANCASTER      LGT RAIN  57  56  96 E5        29.83S FOG
COATESVILLE    CLOUDY    57  57 100 E9G16     29.85F FOG
READING        LGT RAIN  57  55  93 CALM      29.84S FOG
ALLENTOWN      LGT RAIN  54  51  90 NE10      29.85F
MOUNT POCONO   LGT RAIN  47  44  90 N8        29.86F
HAZLETON       HVY RAIN  46  46 100 NE5       29.89F
LEHIGHTON      LGT RAIN  52  52 100 CALM      29.88R
WILKES BARRE   LGT RAIN  49  47  93 VRB3      29.87F

$$
DEZALL-MDZ008-012-015-019-020-030800-
DELAWARE AND EASTERN MARYLAND

CITY           SKY/WX    TMP DP  RH WIND       PRES   REMARKS
WILMINGTON     CLOUDY    58  55  90 E9        29.83F
DOVER          CLOUDY    59  59 100 NE2       29.80F
GEORGETOWN     LGT RAIN  60  60 100 SE5       29.82F FOG
EASTON         LGT RAIN N/A N/A N/A CALM      29.84F
PATUXENT       CLOUDY    65  63  93 SW5       29.81F
OCEAN CITY     LGT RAIN  61  60  97 E6        29.81F FOG
WALLOPS ISLAND MOCLDY    65  64  97 S3        29.82F
CAMBRIDGE        N/A     64  63  94 CALM      29.80F
SALISBURY      LGT RAIN  64  63  96 NW9       29.79F FOG

$$
PAZ001-021-NYZ056-072-MDZ011-DCZ001-030800-
OTHER NEARBY LOCATIONS

CITY           SKY/WX    TMP DP  RH WIND       PRES   REMARKS
HARRISBURG     LGT RAIN  59  56  89 E5        29.82F FOG
STATE COLLEGE  CLOUDY    49  49  98 NE10      29.86F
WILLIAMSPORT   CLOUDY    50  46  86 N3        29.88F
BINGHAMTON     CLOUDY    42  39  89 NE6       29.90F
NEW YORK CITY  RAIN      53  51  93 VRB6      29.90F FOG
BALTIMORE      CLOUDY    60  58  92 NE8       29.81F FOG
WASHINGTON DC  CLOUDY    63  61  93 N6        29.82S

$$




USA.gov is the U.S. government's official web portal to all federal, state and local government web resources and services.